Regional Weather Roundup
Issued by NWS

Home | Current Version | Previous Version | Text Only | Print | Product List | Glossary Off
Versions: 1 2 3 4 5 6 7 8 9 10 11 12 13 14 15 16 17 18 19 20 21 22 23 24 25 26 27 28 29 30 31 32 33 34 35 36 37 38 39 40 41 42 43 44 45 46 47 48 49 50

000
ASUS43 KLSX 261859
RWRMO

WEATHER SUMMARY FOR MISSOURI
NATIONAL WEATHER SERVICE SPRINGFIELD MO
200 PM CDT FRI MAY 26 2017

NOTE: "FAIR" INDICATES FEW OR NO CLOUDS BELOW 12,000 FEET WITH NO
       SIGNIFICANT WEATHER AND/OR OBSTRUCTIONS TO VISIBILITY.
       CURRENT SKY AND/OR WEATHER CONDITIONS ARE NOT AVAILABLE FOR
       CHILLICOTHE AND FARMINGTON.

MOZ001>031-035>038-043-044-053-054-262000-
...NORTHERN AND WESTERN MISSOURI...

CITY           SKY/WX    TMP DP  RH WIND       PRES   REMARKS
KANSAS CTY INT MOSUNNY   80  65  59 VRB3      29.75S
KANSAS C DTWN  MOSUNNY   82  65  56 N5        29.74R
LEE`S SUMMIT   PTSUNNY   81  66  60 NE3       29.75S
ST JOSEPH      MOSUNNY   83  63  50 NE9       29.75S
CHILLICOTHE      N/A     81  66  60 NE7       29.74R
KIRKSVILLE     PTSUNNY   80  64  58 NW8       29.74S

$$
MOZ066>068-077>081-088>096-101>105-262000-
...SOUTHWEST MISSOURI...

CITY           SKY/WX    TMP DP  RH WIND       PRES   REMARKS
SPRINGFIELD    CLOUDY    77  66  68 SW7       29.77R
JOPLIN         CLOUDY    81  70  69 SW8       29.76S
BRANSON        CLOUDY    81  66  61 SW8       29.79S

$$
MOZ032>034-039>042-045>050-055>058-069>072-262000-
...CENTRAL MISSOURI...

CITY           SKY/WX    TMP DP  RH WIND       PRES   REMARKS
COLUMBIA       CLOUDY    78  66  66 W8        29.75R
JEFFERSON CITY CLOUDY    82  65  56 W7        29.73R
ROLLA          CLOUDY    77  68  73 SW8       29.75R
SEDALIA        CLOUDY    78  67  68 CALM      29.76R
WARRENSBURG    PTSUNNY   77  63  61 CALM      29.74S
OSAGE BEACH    CLOUDY    77  68  73 W6        29.76R

$$
MOZ051-052-059>065-262000-
...EAST CENTRAL MISSOURI...

CITY           SKY/WX    TMP DP  RH WIND       PRES   REMARKS
ST LOUIS INTL  PTSUNNY   85  64  49 S12G17    29.73S
SPIRIT OF STL  CLOUDY    82  67  60 S6        29.72R
ST CHARLES     MOSUNNY   85  65  51 S13       29.71R

$$
MOZ072>076-082>087-097>100-106>115-262000-
...SOUTH CENTRAL AND SOUTHEAST MISSOURI...

CITY           SKY/WX    TMP DP  RH WIND       PRES   REMARKS
CAPE GIRARDEAU PTSUNNY   85  62  46 SW24G31   29.77F
FARMINGTON     CLOUDY    72  65  78 S12       29.79F
POPLAR BLUFF   LGT RAIN  75  65  70 S18G25    29.79F
WEST PLAINS    CLOUDY    75  65  70 S13       29.81R

$$




USA.gov is the U.S. government's official web portal to all federal, state and local government web resources and services.